Location: Newark
(40.3500°N, 15.2333°E)
Time: 19:54:12
(UTC+00:00)

Vanguard 1 - Pass Details

Date: 31 January 2020
Orbit: 650 x 3833 km, 34.2° (Epoch: 16 February)

Event Time Altitude Azimuth Distance (km) Brightness Sun altitude
Rises 14:58:09 0° 251° (WSW) 3,546 14.6 12.0°
Reaches altitude 10° 15:01:08 10° 244° (WSW) 2,342 14.6 11.6°
Maximum altitude 15:05:48 39° 175° (S) 1,004 10.6 10.8°
Drops below altitude 10° 15:09:55 10° 106° (ESE) 2,056 11.4 10.2°
Sets 15:12:22 0° 98° (E) 3,050 12.2 9.8°
